Flag for Poland Weather past 2 weeks in Legnica, Poland

Now
69 °F

Scattered clouds.


Feels Like: 69 °F
Forecast: 57 / 73 °F
Wind: 2 mph from Southwest

Location: Wroclaw Ii

Current Time: Aug 22, 2014 at 11:50:21 AM

Latest Report: Aug 22, 2014 at 11:00 AM


Visibility: 31 mi

Pressure: 30.01 "Hg

Humidity: 48%

Dew point: 49 °F

Location of LegnicaLocation

Historic Weather in Legnica — Graph

°F

Legnica temperature yesterday

Maximum temperature yesterday: 67 °F (at 4:00 PM)
Minimum temperature yesterday: 52 °F (at 1:00 AM)
Average temperature yesterday: 59 °F

Past Weeks' High & Low Weather Summary

 TemperatureHumidityPressure
High87 °F (Aug 9, 4:00 PM)97% (Aug 22, 5:00 AM)30.06 "Hg (Aug 22, 5:00 AM)
Low45 °F (Aug 22, 4:00 AM)36% (Aug 12, 4:00 PM)29.62 "Hg (Aug 14, 12:00 AM)
Average65 °F72%29.90 "Hg
* Reported Aug 7 10:00 AM — Aug 22 10:00 AM, Legnica, Weather by CustomWeather, © 2014

Note: Actual official high and low records may vary slightly from our data, if they occured in-between our weather recording intervals... More about our weather records

Advertising

Legnica weather history for previous 24 hours

 ConditionsComfort  
Time TempWeatherWind HumidityBarometerVisibility
10:00 AM
Aug 22
66 °FPassing clouds.2 mph62%30.02 "Hg31 mi
9:00 AM59 °FPassing clouds.2 mph79%30.02 "Hg31 mi
8:00 AM53 °FPassing clouds.2 mph88%30.03 "Hg16 mi
7:00 AM47 °FPassing clouds.2 mph95%30.03 "Hg6 mi
6:00 AM46 °FFog.2 mph96%30.03 "Hg5 mi
5:00 AM47 °FFog.2 mph97%30.03 "Hg4 mi
4:00 AM45 °FFog.2 mph96%30.04 "Hg1 mi
3:00 AM46 °FFog.1 mph95%30.06 "Hg6 mi
2:00 AMN/APassing clouds.26 mphN/AN/A3 mi
1:00 AM50 °FClear.1 mph94%30.05 "Hg16 mi
12:00 AM51 °FClear.1 mph90%30.05 "Hg19 mi
11:00 PM
Aug 21
52 °FClear.1 mph89%30.05 "Hg25 mi
10:00 PM54 °FClear.1 mph86%30.04 "Hg25 mi
9:00 PM56 °FPassing clouds.2 mph82%30.03 "Hg25 mi
8:00 PM58 °FScattered clouds.1 mph79%30.02 "Hg25 mi
7:00 PM63 °FPassing clouds.1 mph64%30.01 "Hg25 mi
6:00 PM63 °FPassing clouds.2 mph61%30.01 "Hg25 mi
5:00 PM61 °FThunderstorms. Partly sunny.1 mph65%30.01 "Hg19 mi
4:00 PM67 °FThunderstorms. Scattered clouds.2 mph48%30.00 "Hg25 mi
3:00 PM65 °FPartly sunny.2 mph49%30.01 "Hg25 mi
2:00 PM67 °FPartly sunny.1 mph44%30.01 "Hg25 mi
1:00 PM66 °FScattered clouds.2 mph45%30.01 "Hg25 mi
12:00 PM66 °FScattered clouds.5 mph48%30.02 "Hg25 mi
11:00 AM64 °FPartly sunny.3 mph53%30.02 "Hg25 mi
Weather by CustomWeather, © 2014

See weather overviewHow to use our weather pages